Location: Zagreb
(45.8000°N, 16.0000°E)
Time: 14:06:57
(UTC+02:00)

Vanguard 1 - Pass Details

Date: 13 August 2022
Orbit: 649 x 3832 km, 34.2° (Epoch: 25 September)

Event Time Altitude Azimuth Distance (km) Brightness Sun altitude
Rises 04:22:18 0° 225° (SW) 5,405 - -14.4°
Reaches altitude 10° 04:25:28 10° 219° (SW) 4,767 - -14.0°
Exits shadow 04:26:47 14° 216° (SW) 4,538 12.8 -13.8°
Maximum altitude 04:39:14 46° 152° (SSE) 3,853 13.0 -12.1°
Drops below altitude 10° 04:59:47 10° 89° (E) 6,928 15.4 -9.1°
Sets 05:05:37 0° 85° (E) 7,964 16.0 -8.2°
